Location: Blue Mountain Vista Observatory
(40.6992°N, 75.9422°W)
Time: 00:51:12
(UTC-04:00)

Amateur Radio Satellites - All Passes

Search period start: 24 July 2017 00:21
Search period end: 25 July 2017 00:21
Location: Blue Mountain Vista Observatory, 40.6992°N, 75.9422°W

Satellite Date Start Highest point End Downlink Frequencies (MHz)
Time Altitude Azimuth
Tancredo 1 24 Jul 00:21:55 00:22:19 10° 360° (N) 00:22:43 437.200
PRISM 24 Jul 00:22:18 00:25:04 17° 295° (WNW) 00:27:50 437.425
ESTCUBE 1 24 Jul 00:25:55 00:29:57 33° 263° (W) 00:34:01 437.505/2401.250
O/OREOS (USA 219) 24 Jul 00:34:28 00:37:02 15° 54° (NE) 00:39:38 437.305
DUCHIFAT 1 24 Jul 00:37:25 00:41:16 34° 98° (E) 00:45:04 145.980
POLYITAN 1 24 Jul 00:37:31 00:41:34 44° 99° (E) 00:45:34 437.675
UKube-1 24 Jul 00:39:13 00:41:48 16° 64° (ENE) 00:44:24 .
SPROUT 24 Jul 00:43:22 00:47:40 84° 257° (WSW) 00:52:00 437.525
TIGRISAT 24 Jul 00:43:55 00:44:49 11° 299° (WNW) 00:45:44 435.000
AIST 2D 24 Jul 00:48:49 00:52:08 42° 286° (WNW) 00:55:27 435.315
QB50P2 24 Jul 00:50:22 00:54:35 71° 103° (ESE) 00:58:45 145.880/145.840
EO-79 24 Jul 01:02:56 01:07:10 89° 86° (E) 01:11:22 145.935-145.965
NANOSAT C BR1 24 Jul 01:03:56 01:08:09 82° 104° (ESE) 01:12:19 145.865
BUGSAT 1 24 Jul 01:12:26 01:15:45 24° 95° (E) 01:19:02 437.445
ISS 24 Jul 01:13:33 01:14:57 12° 1° (N) 01:16:21 437.550
VELOX 1 24 Jul 01:17:41 01:21:50 41° 261° (W) 01:26:03 145.980
50 SAT 24 Jul 01:23:16 01:26:38 74° 258° (WSW) 01:30:03 437.505
DX 1 24 Jul 01:27:27 01:31:48 78° 74° (ENE) 01:36:11 434.975-435.025
M-CUBED/EXP-1 PRIME 24 Jul 01:28:51 01:30:27 12° 304° (WNW) 01:32:04 437.505
ITUPSAT 1 24 Jul 01:53:13 01:54:32 11° 59° (ENE) 01:55:52 437.325
Tancredo 1 24 Jul 01:56:36 01:58:39 17° 20° (NNE) 02:00:44 437.200
Oscar 19 24 Jul 01:57:07 02:01:42 31° 96° (E) 02:06:16 437.125/150
nSIGHT-1 24 Jul 01:57:14 01:59:00 14° 11° (N) 02:00:46 .
Gurwin Techsat 1B 24 Jul 02:12:01 02:16:34 28° 95° (E) 02:21:05 435.225
O/OREOS (USA 219) 24 Jul 02:12:26 02:16:51 60° 252° (WSW) 02:21:17 437.305
UKube-1 24 Jul 02:13:15 02:17:25 48° 260° (W) 02:21:37 .
DUCHIFAT 1 24 Jul 02:13:40 02:16:40 19° 294° (WNW) 02:19:39 145.980
POLYITAN 1 24 Jul 02:14:25 02:16:58 16° 295° (WNW) 02:19:30 437.675
QB50P2 24 Jul 02:28:49 02:29:45 11° 298° (WNW) 02:30:43 145.880/145.840
RS-15 24 Jul 02:33:11 02:44:51 60° 248° (WSW) 02:55:54 29.354- 29.394
AO-7 24 Jul 02:46:52 02:48:07 10° 86° (E) 02:49:22 .
BUGSAT 1 24 Jul 02:47:37 02:51:03 26° 291° (WNW) 02:54:27 437.445
ISS 24 Jul 02:49:47 02:52:21 21° 21° (NNE) 02:54:57 437.550
MOZHAYETS 4 24 Jul 02:51:00 02:54:55 29° 69° (ENE) 02:58:50
BEESAT 24 Jul 03:14:33 03:19:18 73° 75° (ENE) 03:24:05 436.000
CUBESAT XI-V 24 Jul 03:24:07 03:26:07 13° 62° (ENE) 03:28:07 437.345
ITUPSAT 1 24 Jul 03:26:50 03:31:38 87° 256° (WSW) 03:36:27 437.325
Tancredo 1 24 Jul 03:31:26 03:34:24 82° 215° (SW) 03:37:21 437.200
nSIGHT-1 24 Jul 03:33:01 03:36:05 39° 30° (NNE) 03:39:09 .
Oscar 19 24 Jul 03:36:26 03:40:56 31° 293° (WNW) 03:45:27 437.125/150
KKS-1 24 Jul 03:44:24 03:45:59 12° 61° (ENE) 03:47:34 437.445
ITAMSAT 1 24 Jul 03:45:57 03:50:10 24° 95° (E) 03:54:21 435.822/435.867
Gurwin Techsat 1B 24 Jul 03:51:42 03:56:32 36° 292° (WNW) 04:01:21 435.225
STARS 24 Jul 04:18:14 04:19:29 11° 61° (ENE) 04:20:45 437.465
ISS 24 Jul 04:25:52 04:29:05 68° 220° (SW) 04:32:20 437.550
MOZHAYETS 4 24 Jul 04:28:07 04:32:00 27° 265° (W) 04:35:55
AO-7 24 Jul 04:34:03 04:42:23 65° 105° (ESE) 04:50:37 .
RS-15 24 Jul 04:53:10 04:54:22 10° 268° (W) 04:55:34 29.354- 29.394
BEESAT 24 Jul 04:56:03 04:57:33 11° 270° (W) 04:59:05 436.000
CUBESAT XI-V 24 Jul 04:58:20 05:02:54 68° 259° (W) 05:07:29 437.345
PCSat 24 Jul 05:05:18 05:10:08 34° 110° (ESE) 05:14:59 145.827
nSIGHT-1 24 Jul 05:09:43 05:12:20 23° 226° (SW) 05:14:57 .
KKS-1 24 Jul 05:17:27 05:21:54 73° 258° (WSW) 05:26:24 437.445
ITAMSAT 1 24 Jul 05:24:53 05:29:44 40° 291° (WNW) 05:34:31 435.822/435.867
STARS 24 Jul 05:50:45 05:55:10 76° 257° (WSW) 05:59:38 437.465
YUBILEINY 24 Jul 05:52:44 06:01:05 46° 74° (ENE) 06:09:20 435.215
XW-2F 24 Jul 06:09:26 06:10:37 11° 91° (E) 06:11:50 145.980 - 146.000
SO-50 24 Jul 06:12:39 06:16:13 23° 112° (ESE) 06:19:46 436.795
AO-7 24 Jul 06:27:37 06:34:33 30° 303° (WNW) 06:41:27 .
DOVE 4 24 Jul 06:30:29 06:35:46 71° 101° (E) 06:40:51 437.250
XW-2D 24 Jul 06:35:31 06:38:45 26° 96° (E) 06:41:57 145.860 - 145.880
XW-2B 24 Jul 06:45:23 06:48:49 33° 97° (E) 06:52:15 145.730 - 145.750
PCSat 24 Jul 06:48:32 06:53:28 35° 308° (NW) 06:58:26 145.827
HO-68 24 Jul 06:58:59 07:03:03 16° 89° (E) 07:07:04 435.675
XW-2C 24 Jul 07:02:28 07:06:10 57° 100° (E) 07:09:52 145.795 - 145.815
CUTE-I 24 Jul 07:03:21 07:08:31 47° 99° (E) 07:13:39 437.470
NUDT-PHONESAT 24 Jul 07:15:00 07:18:39 60° 101° (E) 07:22:17 437.300
STRAND 1 24 Jul 07:17:46 07:22:46 54° 72° (ENE) 07:27:47 437.568
LilacSat-2 24 Jul 07:24:26 07:28:12 68° 284° (WNW) 07:31:58 437.200
KAITUO 1B 24 Jul 07:27:35 07:31:19 88° 285° (WNW) 07:35:03 145.475/437.950
XW-2F 24 Jul 07:41:24 07:45:00 45° 286° (WNW) 07:48:35 145.980 - 146.000
YUBILEINY 24 Jul 07:49:50 07:57:41 39° 274° (W) 08:05:29 435.215
SO-50 24 Jul 07:52:11 07:56:26 39° 309° (NW) 08:00:42 436.795
AAUSAT CUBESAT 2 24 Jul 08:00:24 08:01:49 11° 90° (E) 08:03:13 437.432
CUBEBUG 2 24 Jul 08:00:53 08:04:08 21° 93° (E) 08:07:19 437.445
DOVE 4 24 Jul 08:09:43 08:12:46 16° 298° (WNW) 08:15:46 437.250
XW-2D 24 Jul 08:09:59 08:12:46 20° 291° (WNW) 08:15:33 145.860 - 145.880
FO-29 24 Jul 08:17:27 08:23:08 23° 58° (ENE) 08:28:54 435.910
XW-2B 24 Jul 08:20:22 08:22:44 16° 293° (WNW) 08:25:06 145.730 - 145.750
CUTE 1.7 + AOD 2 24 Jul 08:32:11 08:36:26 82° 285° (WNW) 08:40:42 437.475
XW-2C 24 Jul 08:39:27 08:39:51 10° 296° (WNW) 08:40:15 145.795 - 145.815
CUTE-I 24 Jul 08:44:06 08:48:14 23° 296° (WNW) 08:52:21 437.470
HO-68 24 Jul 08:44:24 08:51:36 88° 289° (WNW) 08:58:45 435.675
SEEDS 24 Jul 08:46:33 08:50:47 89° 283° (WNW) 08:55:01 437.485
XW-2A 24 Jul 08:50:26 08:53:45 70° 284° (WNW) 08:57:04 145.665 - 145.685
STRAND 1 24 Jul 08:58:49 09:02:15 18° 268° (W) 09:05:42 437.568
UWE-3 24 Jul 09:00:35 09:04:44 58° 100° (E) 09:08:48 435.000/436.395/437.385
ZACube-1 24 Jul 09:16:49 09:20:51 47° 99° (E) 09:24:49 437.345
UNISAT 6 24 Jul 09:18:34 09:22:15 24° 68° (ENE) 09:25:54 437.425
AAUSAT CUBESAT 2 24 Jul 09:33:30 09:37:36 57° 286° (WNW) 09:41:41 437.432
PRISM 24 Jul 09:35:12 09:38:39 27° 69° (ENE) 09:42:08 437.425
CUBEBUG 2 24 Jul 09:37:02 09:40:48 31° 290° (WNW) 09:44:28 437.445
Oscar 11 24 Jul 09:44:44 09:49:02 68° 100° (E) 09:53:20 .
EO-88 24 Jul 09:55:32 09:56:36 11° 91° (E) 09:57:41 145.990 - 145.960
AO-73 24 Jul 09:57:39 10:01:45 63° 285° (WNW) 10:05:49 145.935
FO-29 24 Jul 09:59:38 10:07:12 82° 257° (WSW) 10:15:09 435.910
TIGRISAT 24 Jul 10:02:03 10:06:39 61° 74° (ENE) 10:11:11 435.000
HO-68 24 Jul 10:33:55 10:38:20 18° 306° (NW) 10:42:46 435.675
M-CUBED/EXP-1 PRIME 24 Jul 10:37:53 10:41:27 79° 251° (WSW) 10:45:22 437.505
UWE-3 24 Jul 10:38:59 10:40:39 12° 297° (WNW) 10:42:19 435.000/436.395/437.385
DELFI C3 24 Jul 10:45:07 10:49:08 83° 102° (ESE) 10:53:09 145.870
ZACube-1 24 Jul 10:54:28 10:56:43 14° 295° (WNW) 10:58:57 437.345
UNISAT 6 24 Jul 10:54:31 10:58:45 34° 263° (W) 11:02:58 437.425
PRISM 24 Jul 11:10:35 11:13:52 23° 265° (W) 11:17:12 437.425
AIST 2D 24 Jul 11:22:17 11:25:41 56° 75° (ENE) 11:29:07 435.315
Oscar 11 24 Jul 11:23:10 11:24:36 11° 297° (WNW) 11:26:01 .
EO-88 24 Jul 11:27:02 11:30:30 43° 286° (WNW) 11:33:58 145.990 - 145.960
DUCHIFAT 1 24 Jul 11:28:53 11:32:23 25° 68° (ENE) 11:35:52 145.980
POLYITAN 1 24 Jul 11:29:35 11:33:23 32° 70° (ENE) 11:37:12 437.675
LO-87 24 Jul 11:34:44 11:37:44 24° 96° (E) 11:40:41 145.935 - 145.965
TIGRISAT 24 Jul 11:41:31 11:43:40 13° 269° (W) 11:45:50 435.000
QB50P2 24 Jul 11:42:12 11:46:19 49° 73° (ENE) 11:50:27 145.880/145.840
FO-29 24 Jul 11:49:05 11:53:15 15° 275° (W) 11:57:34 435.910
NO-84 24 Jul 11:50:35 11:53:36 83° 136° (SE) 11:56:53 435.350 FM
EO-79 24 Jul 11:54:28 11:58:41 62° 74° (ENE) 12:02:55 145.935-145.965
NANOSAT C BR1 24 Jul 11:55:10 11:59:19 56° 74° (ENE) 12:03:30 145.865
BUGSAT 1 24 Jul 12:02:07 12:04:58 18° 66° (ENE) 12:07:48 437.445
ESTCUBE 1 24 Jul 12:17:57 12:22:22 50° 100° (E) 12:26:45 437.505/2401.250
SPROUT 24 Jul 12:30:25 12:33:08 16° 92° (E) 12:35:49 437.525
DUCHIFAT 1 24 Jul 13:04:21 13:07:56 27° 264° (W) 13:11:33 145.980
BEESAT 3 24 Jul 13:05:52 13:09:45 54° 118° (ESE) 13:13:42 437.485
POLYITAN 1 24 Jul 13:05:57 13:09:12 21° 266° (W) 13:12:28 437.675
VELOX 1 24 Jul 13:07:41 13:11:49 36° 98° (E) 13:15:56 145.980
LO-87 24 Jul 13:08:20 13:11:00 20° 291° (WNW) 13:13:38 145.935 - 145.965
Oscar 19 24 Jul 13:13:33 13:18:23 45° 70° (ENE) 13:23:15 437.125/150
DX 1 24 Jul 13:17:28 13:19:42 14° 92° (E) 13:21:56 434.975-435.025
QB50P2 24 Jul 13:20:07 13:22:22 14° 268° (W) 13:24:36 145.880/145.840
AO-85 24 Jul 13:24:39 13:28:39 89° 272° (W) 13:32:36 145.980
NO-84 24 Jul 13:29:29 13:31:31 15° 337° (NNW) 13:33:40 435.350 FM
Gurwin Techsat 1B 24 Jul 13:32:36 13:37:37 44° 70° (ENE) 13:42:39 435.225
EO-79 24 Jul 13:33:38 13:34:49 11° 270° (W) 13:36:00 145.935-145.965
NANOSAT C BR1 24 Jul 13:33:42 13:35:21 12° 269° (W) 13:37:02 145.865
BUGSAT 1 24 Jul 13:36:00 13:39:59 40° 261° (W) 13:44:00 437.445
AO-7 24 Jul 13:43:32 13:49:04 20° 50° (NE) 13:54:38 .
BEESAT 2 24 Jul 13:43:46 13:47:35 46° 117° (ESE) 13:51:27 435.950
PCSat 24 Jul 13:53:08 13:57:49 28° 50° (NE) 14:02:26 145.827
ESTCUBE 1 24 Jul 13:55:56 13:58:45 16° 296° (WNW) 14:01:33 437.505/2401.250
UKube-1 24 Jul 14:00:39 14:04:20 27° 96° (E) 14:08:00 .
SPROUT 24 Jul 14:05:11 14:09:12 41° 288° (WNW) 14:13:10 437.525
50 SAT 24 Jul 14:17:58 14:21:24 70° 284° (WNW) 14:24:48 437.505
SO-50 24 Jul 14:43:27 14:47:02 22° 45° (NE) 14:50:38 436.795
VELOX 1 24 Jul 14:44:39 14:48:01 21° 294° (WNW) 14:51:22 145.980
BEESAT 3 24 Jul 14:45:02 14:47:39 17° 316° (NW) 14:50:17 437.485
RS-15 24 Jul 14:45:29 14:54:36 26° 100° (E) 15:03:49 29.354- 29.394
O/OREOS (USA 219) 24 Jul 14:47:03 14:49:43 16° 100° (E) 14:52:23 437.305
DX 1 24 Jul 14:51:54 14:56:11 53° 288° (WNW) 15:00:26 434.975-435.025
Oscar 19 24 Jul 14:54:04 14:57:54 21° 267° (W) 15:01:45 437.125/150
ITAMSAT 1 24 Jul 15:03:21 15:08:07 37° 68° (ENE) 15:12:55 435.822/435.867
AO-85 24 Jul 15:08:38 15:09:38 11° 321° (NW) 15:10:38 145.980
Gurwin Techsat 1B 24 Jul 15:13:33 15:17:43 23° 266° (W) 15:21:54 435.225
BEESAT 24 Jul 15:15:54 15:19:11 18° 93° (E) 15:22:27 436.000
BEESAT 2 24 Jul 15:22:42 15:25:34 19° 315° (NW) 15:28:28 435.950
ITUPSAT 1 24 Jul 15:28:09 15:32:00 24° 95° (E) 15:35:50 437.325
AO-7 24 Jul 15:32:16 15:40:38 83° 69° (ENE) 15:49:03 .
PCSat 24 Jul 15:36:13 15:41:22 44° 248° (WSW) 15:46:28 145.827
UKube-1 24 Jul 15:36:38 15:40:16 26° 292° (WNW) 15:43:53 .
MOZHAYETS 4 24 Jul 16:22:20 16:26:54 69° 102° (ESE) 16:31:26
SO-50 24 Jul 16:23:20 16:27:42 47° 243° (WSW) 16:32:06 436.795
O/OREOS (USA 219) 24 Jul 16:24:21 16:28:41 47° 296° (WNW) 16:33:02 437.305
ITAMSAT 1 24 Jul 16:43:16 16:47:38 27° 265° (W) 16:52:01 435.822/435.867
NO-84 24 Jul 16:47:15 16:49:13 14° 21° (NNE) 16:51:16 435.350 FM
CUTE-I 24 Jul 16:50:18 16:50:58 10° 56° (ENE) 16:51:37 437.470
BEESAT 24 Jul 16:52:38 16:57:10 45° 289° (WNW) 17:01:40 436.000
RS-15 24 Jul 16:53:19 17:05:34 87° 303° (WNW) 17:18:01 29.354- 29.394
CUBESAT XI-V 24 Jul 16:55:15 16:59:21 30° 96° (E) 17:03:27 437.345
ITUPSAT 1 24 Jul 17:05:34 17:09:53 35° 291° (WNW) 17:14:10 437.325
KKS-1 24 Jul 17:09:18 17:12:44 21° 94° (E) 17:16:08 437.445
XW-2D 24 Jul 17:17:46 17:19:36 13° 66° (ENE) 17:21:26 145.860 - 145.880
XW-2B 24 Jul 17:27:10 17:29:34 16° 67° (ENE) 17:31:58 145.730 - 145.750
AO-7 24 Jul 17:28:31 17:34:16 20° 268° (W) 17:40:03 .
HO-68 24 Jul 17:29:41 17:32:45 13° 51° (NE) 17:35:49 435.675
DOVE 4 24 Jul 17:34:52 17:39:39 65° 74° (ENE) 17:44:45 437.250
STARS 24 Jul 17:41:10 17:44:22 19° 94° (E) 17:47:31 437.465
XW-2C 24 Jul 17:43:37 17:46:46 26° 70° (ENE) 17:49:55 145.795 - 145.815
NUDT-PHONESAT 24 Jul 17:54:07 17:57:10 25° 70° (ENE) 18:00:13 437.300
MOZHAYETS 4 24 Jul 18:01:34 18:03:27 12° 298° (WNW) 18:05:21
LilacSat-2 24 Jul 18:05:37 18:09:18 52° 74° (ENE) 18:12:58 437.200
KAITUO 1B 24 Jul 18:07:07 18:10:31 37° 73° (ENE) 18:13:57 145.475/437.950
XW-2F 24 Jul 18:21:20 18:25:04 75° 77° (ENE) 18:28:48 145.980 - 146.000
NO-84 24 Jul 18:23:36 18:27:24 51° 38° (NE) 18:31:27 435.350 FM
CUTE-I 24 Jul 18:24:42 18:30:03 74° 74° (ENE) 18:35:26 437.470
CUBESAT XI-V 24 Jul 18:32:41 18:36:37 27° 292° (WNW) 18:40:33 437.345
KKS-1 24 Jul 18:45:17 18:49:20 35° 291° (WNW) 18:53:23 437.445
XW-2D 24 Jul 18:49:51 18:53:24 41° 261° (W) 18:56:59 145.860 - 145.880
YUBILEINY 24 Jul 18:52:51 19:01:19 53° 90° (E) 19:09:47 435.215
CUBEBUG 2 24 Jul 18:58:27 19:01:51 20° 67° (ENE) 19:05:12 437.445
XW-2B 24 Jul 19:00:06 19:03:29 32° 263° (W) 19:06:54 145.730 - 145.750
RS-15 24 Jul 19:09:17 19:20:01 33° 328° (NNW) 19:30:48 29.354- 29.394
HO-68 24 Jul 19:12:04 19:19:09 67° 70° (ENE) 19:26:17 435.675
DOVE 4 24 Jul 19:15:21 19:17:51 14° 272° (W) 19:20:25 437.250
STARS 24 Jul 19:16:44 19:20:49 37° 289° (WNW) 19:24:51 437.465
XW-2C 24 Jul 19:18:07 19:20:55 20° 266° (W) 19:23:44 145.795 - 145.815
XW-2A 24 Jul 19:21:13 19:24:16 32° 72° (ENE) 19:27:19 145.665 - 145.685
CUTE 1.7 + AOD 2 24 Jul 19:24:05 19:28:13 65° 75° (ENE) 19:32:24 437.475
NUDT-PHONESAT 24 Jul 19:28:17 19:31:01 20° 266° (W) 19:33:46 437.300
STRAND 1 24 Jul 19:29:32 19:33:04 18° 92° (E) 19:36:33 437.568
SEEDS 24 Jul 19:37:29 19:41:33 57° 74° (ENE) 19:45:39 437.485
KAITUO 1B 24 Jul 19:42:50 19:44:40 13° 268° (W) 19:46:31 145.475/437.950
UWE-3 24 Jul 19:56:34 20:00:56 46° 73° (ENE) 20:05:14 435.000/436.395/437.385
Tancredo 1 24 Jul 20:00:15 20:02:39 23° 135° (SE) 20:05:05 437.200
NO-84 24 Jul 20:01:36 20:04:43 22° 233° (SW) 20:07:57 435.350 FM
CUTE-I 24 Jul 20:08:03 20:10:37 14° 270° (W) 20:13:13 437.470
ZACube-1 24 Jul 20:11:53 20:15:58 37° 72° (ENE) 20:19:59 437.345
nSIGHT-1 24 Jul 20:13:34 20:15:02 13° 130° (SE) 20:16:30 .
AAUSAT CUBESAT 2 24 Jul 20:22:40 20:26:46 87° 78° (ENE) 20:30:54 437.432
CUBEBUG 2 24 Jul 20:33:41 20:38:09 42° 262° (W) 20:42:34 437.445
Oscar 11 24 Jul 20:38:54 20:43:02 48° 73° (ENE) 20:47:11 .
YUBILEINY 24 Jul 20:50:36 20:58:24 34° 289° (WNW) 21:06:15 435.215
AO-73 24 Jul 20:52:00 20:56:26 89° 242° (WSW) 21:00:49 145.935
XW-2A 24 Jul 20:55:31 20:57:06 13° 267° (W) 20:58:41 145.665 - 145.685
HO-68 24 Jul 21:02:00 21:07:23 22° 267° (W) 21:12:48 435.675
ISS 24 Jul 21:05:22 21:08:26 41° 138° (SE) 21:11:31 437.550
STRAND 1 24 Jul 21:07:34 21:12:31 51° 289° (WNW) 21:17:26 437.568
FO-29 24 Jul 21:13:04 21:16:58 16° 85° (E) 21:20:39 435.910
SEEDS 24 Jul 21:16:21 21:17:35 11° 270° (W) 21:18:50 437.485
BEESAT 3 24 Jul 21:23:01 21:26:34 29° 50° (NE) 21:30:04 437.485
RS-15 24 Jul 21:29:01 21:37:58 22° 3° (N) 21:46:44 29.354- 29.394
DELFI C3 24 Jul 21:29:53 21:33:35 42° 73° (ENE) 21:37:21 145.870
UWE-3 24 Jul 21:34:38 21:37:35 17° 268° (W) 21:40:29 435.000/436.395/437.385
Tancredo 1 24 Jul 21:35:15 21:37:57 33° 331° (NNW) 21:40:41 437.200
nSIGHT-1 24 Jul 21:47:50 21:51:03 68° 326° (NW) 21:54:16 .
ZACube-1 24 Jul 21:49:03 21:52:19 20° 266° (W) 21:55:33 437.345
AO-85 24 Jul 21:55:18 21:59:30 68° 56° (NE) 22:04:00 145.980
TIGRISAT 24 Jul 21:56:03 21:57:41 12° 90° (E) 21:59:19 435.000
BEESAT 2 24 Jul 22:01:45 22:05:15 27° 49° (NE) 22:08:42 435.950
EO-88 24 Jul 22:03:48 22:07:25 69° 76° (ENE) 22:11:03 145.990 - 145.960
LO-87 24 Jul 22:12:34 22:13:24 11° 64° (ENE) 22:14:13 145.935 - 145.965
Oscar 11 24 Jul 22:17:06 22:19:26 14° 269° (W) 22:21:45 .
ISS 24 Jul 22:42:10 22:44:59 27° 335° (NNW) 22:47:50 437.550
UNISAT 6 24 Jul 22:46:07 22:50:20 49° 99° (E) 22:54:27 437.425
PRISM 24 Jul 22:51:04 22:55:05 45° 99° (E) 22:59:05 437.425
FO-29 24 Jul 22:55:50 23:03:04 84° 284° (WNW) 23:09:23 435.910
BEESAT 3 24 Jul 23:00:46 23:04:01 24° 247° (WSW) 23:07:13 437.485
DELFI C3 24 Jul 23:06:34 23:08:34 14° 268° (W) 23:10:35 145.870
Tancredo 1 24 Jul 23:12:55 23:14:03 12° 350° (N) 23:15:10 437.200
ESTCUBE 1 24 Jul 23:16:59 23:21:12 43° 72° (ENE) 23:25:27 437.505/2401.250
SPROUT 24 Jul 23:24:16 23:26:18 13° 63° (ENE) 23:28:21 437.525
nSIGHT-1 24 Jul 23:25:45 23:27:55 17° 344° (NNW) 23:30:05 .
TIGRISAT 24 Jul 23:30:31 23:34:45 56° 286° (WNW) 23:38:54 435.000
AO-85 24 Jul 23:37:42 23:39:27 12° 250° (WSW) 23:41:14 145.980
BEESAT 2 24 Jul 23:39:27 23:42:57 28° 246° (WSW) 23:46:25 435.950
LO-87 24 Jul 23:42:48 23:46:20 50° 260° (W) 23:49:55 145.935 - 145.965
RS-15 24 Jul 23:44:10 23:55:22 39° 37° (NE) 00:06:02 29.354- 29.394
M-CUBED/EXP-1 PRIME 24 Jul 23:49:56 23:54:33 80° 107° (ESE) 23:59:14 437.505
VELOX 1 25 Jul 00:04:31 00:08:25 31° 69° (ENE) 00:12:20 145.980
DX 1 25 Jul 00:13:25 00:15:17 13° 62° (ENE) 00:17:08 434.975-435.025
